Location: Caltech
(34.1382°N, 118.1253°W)
Time: 20:12:38
(UTC-07:00)

Cosmos 2251 Rocket - Visible Passes

Search period start: 26 April 2017 00:00
Search period end: 06 May 2017 00:00
Orbit: 764 x 792 km, 74.0° (Epoch: 25 April)

Date Brightness Start Highest point End Pass type
(mag) Time Alt. Az. Time Alt. Az. Time Alt. Az.
26 Apr 4.9 05:03:33 10° S 05:08:25 40° E 05:13:20 10° NNE visible
27 Apr 5.7 04:30:35 10° SSE 04:34:43 24° E 04:38:52 10° NE visible
28 Apr 6.2 03:58:27 10° SE 04:01:04 14° E 04:03:42 10° ENE visible
29 Apr 3.6 05:03:35 10° SSW 05:08:51 88° ESE 05:14:12 10° NNE visible
30 Apr 4.2 04:30:02 10° S 04:35:02 52° ESE 04:40:12 10° NNE visible
01 May 5.1 03:57:24 13° SSE 04:01:17 31° E 04:05:55 10° NE visible
02 May 5.8 03:24:41 12° SE 03:27:37 18° E 03:31:10 10° NE visible
02 May 4.0 05:05:12 14° SW 05:09:28 43° WNW 05:14:33 10° N visible
03 May 6.2 02:53:22 10° E 02:54:01 10° E 02:54:40 10° E visible
03 May 3.5 04:32:24 25° SSW 04:35:32 72° WNW 04:40:52 10° NNE visible
04 May 3.7 03:59:32 36° S 04:01:40 68° ESE 04:06:58 10° NNE visible
05 May 4.5 03:26:37 34° SE 03:27:53 40° E 03:32:50 10° NNE visible
05 May 5.0 05:07:07 13° WSW 05:10:17 21° WNW 05:14:17 10° NNW visible
